This demonstration page uses our WeatherBlox Daily Observations layout. Learn more.

Left ArrowRight Arrow

44.8408, -93.29828

Hourly Observations for June 9, 2015

Temp ( °F °C ) Dew Point ( °F °C ) Humidity (%) Winds ( mph kmh ) Pressure ( in mb ) Visibility ( mi km ) Precip ( " mm )
12:53 am 00:53 Mostly Cloudy 70 21.1 55 12.8 59 59 Calm 29.75 1008 9 14 0.00 0.00
1:53 am 01:53 Cloudy 69 20.6 55 12.8 61 61 SW 5 7 29.75 1007 8 13 0.00 0.00
2:53 am 02:53 Partly Cloudy 68 20 56 13.3 65 65 Calm 29.75 1007 8 13 0.00 0.00
3:53 am 03:53 Clear 67 19.4 56 13.3 68 68 SSW 3 6 29.75 1007 8 13 0.00 0.00
4:53 am 04:53 Mostly Clear 66 18.9 55 12.8 68 68 S 3 6 29.74 1007 8 13 0.00 0.00
5:53 am 05:53 Hazy 63 17.2 56 13.3 78 78 ESE 5 7 29.73 1007 6 10 0.00 0.00
6:53 am 06:53 Sunny 68 20 54 12.2 61 61 SSW 3 6 29.73 1007 7 11 0.00 0.00
7:53 am 07:53 Sunny 71 21.7 55 12.8 57 57 WSW 5 7 29.73 1007 7 11 0.00 0.00
8:53 am 08:53 Sunny 73 22.8 56 13.3 55 55 Calm 29.72 1007 8 13 0.00 0.00
9:53 am 09:53 Mostly Sunny 77 25 57 13.9 50 50 SW 5 7 29.71 1006 8 13 0.00 0.00
10:53 am 10:53 Mostly Sunny 80 26.7 59 15 49 49 Calm 29.70 1006 8 13 0.00 0.00
11:53 am 11:53 Partly Cloudy 83 28.3 61 16.1 48 48 Calm 29.69 1005 9 14 0.00 0.00
12:53 pm 12:53 Partly Cloudy 84 28.9 59 15 43 43 Calm 29.67 1005 10 16 0.00 0.00
1:53 pm 13:53 Partly Cloudy 85 29.4 58 14.4 40 40 SE 6 9 29.66 1005 10 16 0.00 0.00
2:53 pm 14:53 Mostly Cloudy 89 31.7 58 14.4 35 35 VRB 7 11 29.64 1004 10 16 0.00 0.00
3:53 pm 15:53 Mostly Cloudy 90 32.2 56 13.3 32 32 SW 6 9 29.62 1003 10 16 0.00 0.00
4:53 pm 16:53 Partly Cloudy 91 32.8 58 14.4 33 33 VRB 6 9 29.60 1002 10 16 0.00 0.00
5:53 pm 17:53 Partly Cloudy 91 32.8 58 14.4 33 33 S 10 17 29.56 1001 10 16 0.00 0.00
6:53 pm 18:53 Partly Cloudy 91 32.8 58 14.4 33 33 SSW 7 11 29.55 1001 10 16 0.00 0.00
7:53 pm 19:53 Mostly Cloudy 91 32.8 61 16.1 37 37 VRB 5 7 29.54 1000 10 16 0.00 0.00
8:53 pm 20:53 Mostly Cloudy 86 30 52 11.1 31 31 WSW 7 11 29.56 1001 10 16 0.00 0.00
9:53 pm 21:53 Partly Cloudy 84 28.9 55 12.8 37 37 WSW 12 19 29.57 1002 10 16 0.00 0.00
10:53 pm 22:53 Mostly Clear 81 27.2 56 13.3 42 42 W 13 20 29.60 1002 10 16 0.00 0.00
11:53 pm 23:53 Mostly Clear 77 25 61 16.1 58 58 WNW 12 19 29.62 1003 10 16 0.00 0.00

Powered by AerisWeather